Location: *
(45.9500°N, 9.0833°E)
Time: 20:18:42
(UTC+00:00)

Tiros 1 - Pass Details

Date: 18 June 2021
Orbit: 630 x 664 km, 48.4° (Epoch: 05 August)

Event Time Altitude Azimuth Distance (km) Brightness Sun altitude
Rises 17:10:12 0° 281° (W) 2,970 12.2 19.1°
Reaches altitude 10° 17:13:42 10° 254° (WSW) 2,062 10.9 18.5°
Maximum altitude 17:15:54 13° 227° (SW) 1,856 10.0 18.1°
Drops below altitude 10° 17:18:07 10° 199° (SSW) 2,064 9.8 17.7°
Sets 17:21:38 0° 172° (S) 2,976 10.3 17.1°
